CAPE
0 0 0 0 0 0 0 2 3 39 40 31 31 36 25 17 9 8 9 154 191 177 302 213 147 183 168
0 0 0 0 0 0 2 26 15 18 45 24 40 59 31 9 3 3 1 136 82 71 97 120 94 105 148
0 0 0 0 2 0 0 14 19 15 18 23 19 20 11 11 3 1 0 24 60 63 53 70 81 92 118
3 6 4 4 3 4 12 10 7 3 6 17 13 13 7 6 2 1 0 0 12 27 1 0 17 60 17
8 0 3 3 1 5 14 9 1 2 2 0 3 1 0 0 0 1 0 0 0 0 0 0 2 19 2
12 16 1 0 0 1 2 6 0 0 0 0 0 0 0 0 2 4 4 0 0 0 0 0 0 0 0
4 0 0 0 1 0 0 4 1 0 0 0 0 1 0 0 7 6 1 0 0 0 0 0 0 0 0
4 1 3 6 17 16 7 0 0 0 0 0 0 0 0 0 2 0 1 0 0 0 0 0 0 0 0
5 32 54 36 29 12 2 4 2 0 0 0 0 0 0 0 0 0 0 0 0 0 0 0 0 0 0
0 1 3 0 3 0 3 9 0 0 0 0 0 0 0 0 0 0 0 0 0 0 0 0 0 0 0
0 0 0 0 0 0 1 5 0 0 0 0 0 0 0 0 0 0 0 0 0 0 0 0 0 0 0
0 0 0 0 0 0 1 0 0 0 0 0 0 0 0 0 0 0 0 0 0 0 0 0 0 0 0
0 0 0 0 0 0 0 0 0 0 1 0 0 0 0 0 0 0 0 0 0 0 0 0 0 0 0
0 0 0 0 0 0 0 0 1 0 0 1 0 0 0 0 0 0 0 0 0 0 0 0 0 0 0
0 0 0 0 0 0 0 0 0 0 0 0 0 0 0 0 0 0 0 0 0 0 0 0 0 0 0
0 3 0 0 0 0 0 0 0 0 0 0 0 0 0 0 8 0 0 0 0 0 0 0 0 0 0
0 0 0 2 2 0 0 0 0 0 0 0 0 0 0 0 0 8 0 0 0 0 0 0 0 0 0
CIN
0 0 0 0 0 0 -1 0 0 0 0 0 0 0 0 0 0 -15 -25 -13 -6 -7 0 0 0 0 0
0 0 0 0 0 0 -1 0 0 0 0 0 0 0 0 0 0 0 0 -8 -27 -4 -1 -1 0 0 0
-1 0 0 -1 -1 -1 0 -1 0 0 0 0 0 0 0 0 0 0 0 -62 -68 -43 -39 -5 -1 -1 0
-1 -1 -2 -1 -2 -2 0 0 0 0 0 0 0 0 0 0 0 0 0 0 -106 -76 -72 -2 -31 -5 -17
-1 0 0 -1 -1 -1 0 0 -2 -2 0 0 0 0 0 0 0 0 0 0 0 -12 0 0 -15 -38 -37
0 0 0 -1 0 0 0 0 -2 0 0 0 0 0 0 0 0 0 0 0 0 0 0 0 0 0 0
0 0 0 -1 0 0 -1 -1 0 0 0 0 0 0 0 0 0 0 0 0 0 0 0 0 0 0 0
-1 0 -2 -2 -1 0 -1 0 0 0 0 0 0 0 0 0 0 0 0 0 0 0 0 0 0 0 0
0 0 0 0 -1 -1 -1 0 0 0 0 0 0 0 0 0 0 0 0 0 0 0 0 0 0 0 0
0 0 0 0 -4 0 -4 0 0 0 0 0 0 0 0 0 0 0 0 0 0 0 0 0 0 0 0
-1 -1 0 0 0 0 0 0 0 0 0 0 0 0 0 0 0 0 0 0 0 0 0 0 0 0 0
-1 0 0 0 0 0 0 0 0 0 0 0 0 0 0 0 0 0 0 0 0 0 0 0 0 0 0
0 0 0 0 0 0 0 0 0 0 0 0 0 0 0 0 0 0 0 0 0 0 0 0 0 0 0
0 0 0 0 0 -1 0 0 0 0 0 0 0 0 0 0 0 0 0 0 0 0 0 0 0 0 0
0 0 0 0 0 0 0 0 0 0 0 0 0 0 0 0 0 0 0 0 0 0 0 0 0 0 0
0 -3 -7 0 0 -2 0 0 0 0 0 0 0 0 0 0 0 0 0 0 0 0 0 0 0 0 0
0 -1 0 -19 -9 0 0 0 0 0 0 0 0 0 0 0 0 0 0 0 0 0 0 0 0 0 0
Wind_Speed
13 15 18 16 17 16 16 14 12 24 28 30 27 33 28 25 21 22 23 24 23 26 27 32 38 37 39
15 14 15 16 17 17 14 11 10 20 30 27 23 27 21 21 18 25 25 22 24 28 29 33 36 39 39
15 13 13 12 14 14 14 12 10 23 24 21 29 22 18 18 18 23 27 25 26 29 34 31 39 40 43
13 11 11 13 11 12 13 10 13 14 18 19 26 19 18 15 16 19 27 27 28 31 32 35 36 40 42
11 11 12 12 13 12 13 13 14 9 9 13 10 7 7 9 11 14 19 26 28 20 30 42 42 41 43
10 11 15 12 13 12 12 12 13 8 12 14 10 9 7 6 16 19 20 23 23 22 34 37 43 41 40
13 12 14 14 14 14 13 12 13 15 11 12 5 12 9 8 17 18 16 24 24 27 25 38 41 42 45
12 12 12 12 13 13 14 12 11 11 4 8 8 12 9 7 14 15 11 27 28 27 30 34 43 41 40
21 23 23 24 20 11 10 10 11 11 3 7 4 10 4 5 9 16 15 26 30 34 35 38 39 41 32
9 14 16 14 18 10 8 10 9 8 2 9 6 4 7 3 9 8 10 27 35 41 41 40 46 22 22
6 10 11 9 7 7 7 6 7 7 10 8 5 5 2 5 5 7 13 18 21 29 42 42 40 30 21
5 8 9 9 7 8 8 7 5 6 12 11 5 5 5 4 5 10 11 17 21 23 20 30 36 34 30
6 6 5 5 10 8 6 7 6 6 10 9 7 7 7 7 6 10 11 10 14 19 18 19 20 20 21
5 4 5 3 5 6 4 6 4 5 9 14 12 13 10 12 11 11 10 10 14 18 18 16 15 16 17
5 6 4 5 5 4 3 5 3 5 6 6 9 14 17 16 13 11 11 15 14 19 23 17 13 12 14
3 5 3 4 4 4 2 5 4 4 5 4 5 4 6 15 28 10 11 15 15 16 18 21 15 11 12
5 4 1 2 5 4 3 4 3 3 4 5 7 7 11 11 8 28 9 13 16 14 13 16 17 12 14
Wind_Direction
294 299 302 300 300 299 294 291 282 288 296 295 292 287 278 269 268 261 253 219 201 189 185 170 172 174 179
294 299 300 304 298 299 305 301 305 300 306 302 296 283 269 269 276 262 242 215 192 199 194 177 179 181 180
292 295 295 302 305 308 314 301 301 304 313 299 308 302 290 278 272 257 229 208 189 192 195 196 183 183 178
290 298 302 312 312 313 314 312 316 316 307 298 303 294 294 284 287 281 212 200 195 193 195 190 188 179 169
299 302 307 317 315 315 311 315 319 296 303 303 302 290 268 294 293 289 212 193 192 180 200 200 182 176 162
297 306 308 305 304 306 310 319 320 323 324 310 304 290 294 310 292 287 260 185 175 166 163 154 152 151 152
299 292 293 296 299 300 307 308 307 305 314 309 298 301 303 292 289 283 226 189 175 170 171 161 158 157 157
284 286 287 302 308 310 306 303 301 306 287 289 298 291 283 256 300 304 252 188 177 166 169 163 155 154 155
299 308 315 312 314 318 321 318 321 318 277 304 286 297 257 309 335 305 217 190 176 169 162 162 152 145 142
299 313 312 302 314 317 314 312 324 316 291 319 305 309 318 324 334 317 193 188 180 169 157 158 147 147 141
295 308 312 303 309 325 316 309 315 298 302 311 301 312 282 301 312 322 158 146 146 148 144 141 137 137 129
289 303 303 301 313 320 302 299 297 306 315 324 293 325 308 309 350 359 135 132 133 134 123 119 110 116 122
288 286 270 296 322 319 302 297 300 344 345 342 340 349 2 21 30 32 65 58 100 108 107 105 108 112 115
291 289 291 301 326 322 307 327 324 359 3 13 19 22 25 23 39 46 34 87 84 87 90 87 98 108 115
284 304 298 322 318 314 310 333 357 342 358 8 29 49 47 40 42 30 62 78 83 94 91 84 71 93 109
277 285 288 302 319 315 317 345 356 336 344 341 336 333 30 39 36 30 56 76 75 85 95 95 81 75 100
269 263 242 291 321 321 325 333 358 337 334 6 38 46 79 73 356 21 56 70 85 77 86 94 100 92 101